EDT,Max TemperatureF,Mean TemperatureF,Min TemperatureF,Max Dew PointF,MeanDew PointF,Min DewpointF,Max Humidity, Mean Humidity, Min Humidity, Max Sea Level PressureIn, Mean Sea Level PressureIn, Min Sea Level PressureIn, Max VisibilityMiles, Mean VisibilityMiles, Min VisibilityMiles, Max Wind SpeedMPH, Mean Wind SpeedMPH, Max Gust SpeedMPH,PrecipitationIn, CloudCover, Events, WindDirDegrees
2011-10-1,73,68,62,66,65,63,100,92,73,29.68,29.63,29.56,10,8,2,15,7,20,0.25,6,Rain-Thunderstorm,142
2011-10-2,68,64,59,63,60,59,100,87,73,29.83,29.80,29.76,10,8,3,15,6,20,0.00,7,Rain,37
2011-10-3,66,58,50,55,49,45,100,74,49,30.08,30.02,29.92,10,10,9,13,3,,0.00,5,Rain,217
2011-10-4,64,58,53,57,54,50,100,84,64,30.00,29.93,29.86,10,10,4,13,7,18,0.03,4,Rain-Thunderstorm,269
2011-10-5,64,58,53,54,49,36,100,75,45,30.10,29.94,29.85,10,9,2,18,11,28,0.19,5,Rain,335
2011-10-6,60,50,39,34,29,21,81,51,23,30.27,30.24,30.21,10,10,10,15,9,24,0.00,0,,323
2011-10-7,59,47,35,41,36,32,87,62,44,30.46,30.41,30.32,10,10,10,10,5,16,0.00,0,,9
2011-10-8,73,60,46,57,50,43,93,68,50,30.44,30.40,30.35,10,10,10,10,7,,0.00,3,,254
2011-10-9,84,70,55,61,53,50,88,60,35,30.34,30.30,30.23,10,10,10,13,7,16,0.00,0,,300
2011-10-10,80,68,57,63,56,54,88,67,42,30.21,30.16,30.09,10,10,10,10,6,,0.00,0,,306
2011-10-11,66,60,55,52,48,45,77,65,46,30.23,30.20,30.15,10,10,10,12,8,16,0.00,0,,41
2011-10-12,60,56,51,54,49,46,88,78,63,30.23,30.20,30.12,10,10,10,14,8,18,0.00,2,,66
2011-10-13,68,62,57,68,62,57,100,98,94,30.03,29.86,29.76,9,3,0,15,9,22,0.17,8,Rain,113
2011-10-14,73,66,59,70,64,59,100,98,78,29.80,29.66,29.44,10,4,0,16,8,23,0.02,7,Fog-Rain,113
2011-10-15,66,62,57,59,48,45,88,63,49,29.66,29.58,29.42,10,10,9,32,23,44,0.00,3,Thunderstorm,238
2011-10-16,64,60,55,41,38,34,51,45,34,29.83,29.78,29.74,10,10,10,29,20,39,0.00,1,,260
2011-10-17,64,60,55,57,48,30,88,64,28,29.75,29.68,29.62,10,10,5,24,17,33,0.04,3,Rain,248
2011-10-18,66,60,55,54,45,37,88,57,37,29.89,29.84,29.77,10,10,10,16,12,23,0.00,1,,240
2011-10-19,62,55,48,63,57,48,100,95,82,29.96,29.87,29.66,10,6,0,18,8,29,0.09,7,Rain,76
2011-10-20,71,66,62,70,63,52,100,87,64,29.60,29.54,29.50,10,6,1,33,19,43,0.06,6,Rain,197
2011-10-21,59,58,57,46,45,43,67,62,55,29.90,29.82,29.72,10,10,10,24,19,34,0.00,4,,241
2011-10-22,60,52,44,46,43,41,93,69,48,30.03,30.00,29.98,10,10,10,14,6,21,0.00,4,,262
2011-10-23,59,48,37,45,39,36,100,73,48,30.14,30.10,30.07,10,10,10,10,5,17,0.00,1,,302
2011-10-24,59,46,33,45,39,32,100,75,51,30.16,30.12,30.04,10,10,10,12,2,,0.00,0,,170
2011-10-25,59,52,46,50,43,34,94,70,42,29.95,29.90,29.85,10,10,5,20,8,29,0.01,3,Rain,298
2011-10-26,51,48,44,41,37,36,71,67,58,30.00,29.93,29.80,10,10,10,12,6,16,0.00,6,,334
2011-10-27,50,47,44,48,46,43,100,92,82,29.78,29.69,29.61,10,6,1,20,8,28,0.26,7,Rain,54
2011-10-28,46,39,32,36,28,19,100,70,34,30.18,30.06,29.81,10,10,6,15,11,26,0.04,2,Rain,326
2011-10-29,48,42,35,39,34,27,93,77,57,30.26,30.14,29.89,10,8,1,26,8,37,0.01,4,Rain,30
2011-10-30,46,39,32,39,32,28,100,81,53,30.12,29.79,29.48,10,7,1,33,21,54,3.02,7,Rain-Snow,334
2011-10-31,51,38,26,34,28,25,93,68,38,30.42,30.37,30.30,10,10,9,8,4,,0.00,0,,292